Time,TemperatureF,DewpointF,PressureIn,WindDirection,WindDirectionDegrees,WindSpeedMPH,WindSpeedGustMPH,Humidity,HourlyPrecipIn,Conditions,Clouds,dailyrainin,SoftwareType,DateUTC
2013-01-24 00:01:00,4.3,-4.0,30.31,North,0,2.5,6.7,68,0.00,,,0.00,WUHU21623XXSP,2013-01-24 06:01:00,
2013-01-24 00:06:00,4.3,-4.0,30.31,WNW,292,2.5,6.3,68,0.00,,,0.00,WUHU21623XXSP,2013-01-24 06:06:00,
2013-01-24 00:11:00,4.3,-3.7,30.31,NNE,22,6.3,6.3,69,0.00,,,0.00,WUHU21623XXSP,2013-01-24 06:11:00,
2013-01-24 00:16:00,4.1,-3.9,30.31,NNE,22,3.1,9.8,69,0.00,,,0.00,WUHU21623XXSP,2013-01-24 06:16:00,
2013-01-24 00:21:00,4.1,-3.9,30.32,ENE,67,2.9,11.2,69,0.00,,,0.00,WUHU21623XXSP,2013-01-24 06:21:00,
2013-01-24 00:26:00,4.1,-3.9,30.32,NNW,337,4.3,11.2,69,0.00,,,0.00,WUHU21623XXSP,2013-01-24 06:26:00,
2013-01-24 00:31:00,4.1,-3.9,30.32,NNW,337,7.6,9.4,69,0.00,,,0.00,WUHU21623XXSP,2013-01-24 06:31:00,
2013-01-24 00:36:00,3.9,-3.7,30.32,NNW,337,3.6,9.4,70,0.00,,,0.00,WUHU21623XXSP,2013-01-24 06:36:00,
2013-01-24 00:41:00,3.9,-3.7,30.32,NNW,337,3.1,10.5,70,0.00,,,0.00,WUHU21623XXSP,2013-01-24 06:41:00,
2013-01-24 00:46:00,3.9,-3.7,30.33,NNW,337,2.9,10.5,70,0.00,,,0.00,WUHU21623XXSP,2013-01-24 06:46:00,
2013-01-24 00:51:00,3.7,-3.9,30.33,North,0,2.5,10.5,70,0.00,,,0.00,WUHU21623XXSP,2013-01-24 06:51:00,
2013-01-24 00:56:00,3.4,-4.2,30.33,WNW,292,3.8,10.5,70,0.00,,,0.00,WUHU21623XXSP,2013-01-24 06:56:00,
2013-01-24 01:01:00,3.4,-4.2,30.34,North,0,4.7,8.3,70,0.00,,,0.00,WUHU21623XXSP,2013-01-24 07:01:00,
2013-01-24 01:06:00,3.4,-3.9,30.34,North,0,7.4,8.3,71,0.00,,,0.00,WUHU21623XXSP,2013-01-24 07:06:00,
2013-01-24 01:11:00,3.4,-3.9,30.34,NW,315,1.6,9.8,71,0.00,,,0.00,WUHU21623XXSP,2013-01-24 07:11:00,
2013-01-24 01:16:00,3.0,-4.3,30.35,SSE,157,2.9,9.8,71,0.00,,,0.00,WUHU21623XXSP,2013-01-24 07:16:00,
2013-01-24 01:21:00,3.0,-4.3,30.35,North,0,4.0,6.7,71,0.00,,,0.00,WUHU21623XXSP,2013-01-24 07:21:00,
2013-01-24 01:26:00,3.0,-4.3,30.35,NW,315,2.5,6.7,71,0.00,,,0.00,WUHU21623XXSP,2013-01-24 07:26:00,
2013-01-24 01:31:00,2.8,-4.5,30.35,North,0,2.2,6.3,71,0.00,,,0.00,WUHU21623XXSP,2013-01-24 07:31:00,
2013-01-24 01:36:00,2.8,-4.5,30.36,NNW,337,2.5,8.9,71,0.00,,,0.00,WUHU21623XXSP,2013-01-24 07:36:00,
2013-01-24 01:41:00,2.8,-4.5,30.36,NNW,337,1.8,8.9,71,0.00,,,0.00,WUHU21623XXSP,2013-01-24 07:41:00,
2013-01-24 01:46:00,2.5,-4.8,30.37,NNW,337,2.9,4.5,71,0.00,,,0.00,WUHU21623XXSP,2013-01-24 07:46:00,
2013-01-24 01:51:00,2.8,-4.5,30.38,WNW,292,1.8,5.8,71,0.00,,,0.00,WUHU21623XXSP,2013-01-24 07:51:00,
2013-01-24 01:56:00,2.7,-4.6,30.38,NW,315,3.1,6.3,71,0.00,,,0.00,WUHU21623XXSP,2013-01-24 07:56:00,
2013-01-24 02:01:00,2.5,-4.5,30.38,NW,315,0.0,7.2,72,0.00,,,0.00,WUHU21623XXSP,2013-01-24 08:01:00,
2013-01-24 02:06:00,2.3,-4.7,30.38,WNW,292,2.2,7.2,72,0.00,,,0.00,WUHU21623XXSP,2013-01-24 08:06:00,
2013-01-24 02:11:00,2.3,-4.7,30.37,NNW,337,6.0,6.7,72,0.00,,,0.00,WUHU21623XXSP,2013-01-24 08:11:00,
2013-01-24 02:16:00,2.1,-4.9,30.38,WNW,292,1.6,6.3,72,0.00,,,0.00,WUHU21623XXSP,2013-01-24 08:16:00,
2013-01-24 02:21:00,1.9,-5.1,30.38,WNW,292,0.0,6.3,72,0.00,,,0.00,WUHU21623XXSP,2013-01-24 08:21:00,
2013-01-24 02:26:00,1.9,-5.1,30.39,North,0,0.9,6.7,72,0.00,,,0.00,WUHU21623XXSP,2013-01-24 08:26:00,
2013-01-24 02:31:00,1.8,-5.3,30.38,NW,315,4.9,6.7,72,0.00,,,0.00,WUHU21623XXSP,2013-01-24 08:31:00,
2013-01-24 02:36:00,1.8,-5.0,30.38,NW,315,1.3,5.4,73,0.00,,,0.00,WUHU21623XXSP,2013-01-24 08:36:00,
2013-01-24 02:41:00,1.4,-5.4,30.38,WNW,292,1.6,5.4,73,0.00,,,0.00,WUHU21623XXSP,2013-01-24 08:41:00,
2013-01-24 02:46:00,1.2,-5.5,30.39,WNW,292,2.0,5.6,73,0.00,,,0.00,WUHU21623XXSP,2013-01-24 08:46:00,
2013-01-24 02:51:00,1.2,-5.5,30.39,NNW,337,7.6,7.6,73,0.00,,,0.00,WUHU21623XXSP,2013-01-24 08:51:00,
2013-01-24 02:56:00,1.2,-5.5,30.39,North,0,0.0,8.5,73,0.00,,,0.00,WUHU21623XXSP,2013-01-24 08:56:00,
2013-01-24 03:01:00,1.2,-5.5,30.40,WNW,292,2.5,8.5,73,0.00,,,0.00,WUHU21623XXSP,2013-01-24 09:01:00,
2013-01-24 03:06:00,1.0,-5.7,30.40,NW,315,3.4,7.6,73,0.00,,,0.00,WUHU21623XXSP,2013-01-24 09:06:00,
2013-01-24 03:11:00,0.9,-5.9,30.40,NNW,337,2.7,6.9,73,0.00,,,0.00,WUHU21623XXSP,2013-01-24 09:11:00,
2013-01-24 03:16:00,0.7,-6.1,30.40,NE,45,2.0,4.5,73,0.00,,,0.00,WUHU21623XXSP,2013-01-24 09:16:00,
2013-01-24 03:21:00,0.5,-6.2,30.40,North,0,2.9,3.4,73,0.00,,,0.00,WUHU21623XXSP,2013-01-24 09:21:00,
2013-01-24 03:26:00,0.5,-5.9,30.40,NW,315,3.4,4.5,74,0.00,,,0.00,WUHU21623XXSP,2013-01-24 09:26:00,
2013-01-24 03:31:00,0.5,-5.9,30.41,NNW,337,4.9,4.9,74,0.00,,,0.00,WUHU21623XXSP,2013-01-24 09:31:00,
2013-01-24 03:36:00,0.5,-5.9,30.42,NW,315,2.5,6.7,74,0.00,,,0.00,WUHU21623XXSP,2013-01-24 09:36:00,
2013-01-24 03:41:00,0.5,-5.9,30.42,NNW,337,2.9,6.7,74,0.00,,,0.00,WUHU21623XXSP,2013-01-24 09:41:00,
2013-01-24 03:47:00,0.3,-6.1,30.42,NNE,22,3.4,5.8,74,0.00,,,0.00,WUHU21623XXSP,2013-01-24 09:47:00,
2013-01-24 03:52:00,0.3,-6.1,30.42,North,0,4.0,5.8,74,0.00,,,0.00,WUHU21623XXSP,2013-01-24 09:52:00,
2013-01-24 03:57:00,0.3,-6.1,30.43,NNW,337,4.0,4.7,74,0.00,,,0.00,WUHU21623XXSP,2013-01-24 09:57:00,
2013-01-24 04:02:00,0.1,-6.3,30.43,North,0,3.8,4.7,74,0.00,,,0.00,WUHU21623XXSP,2013-01-24 10:02:00,
2013-01-24 04:07:00,0.1,-6.0,30.43,NNW,337,6.3,6.3,75,0.00,,,0.00,WUHU21623XXSP,2013-01-24 10:07:00,
2013-01-24 04:12:00,0.1,-6.0,30.44,North,0,2.5,6.3,75,0.00,,,0.00,WUHU21623XXSP,2013-01-24 10:12:00,
2013-01-24 04:17:00,0.0,-6.2,30.43,NNW,337,2.7,5.1,75,0.00,,,0.00,WUHU21623XXSP,2013-01-24 10:17:00,
2013-01-24 04:22:00,-0.2,-6.4,30.43,NW,315,4.3,5.1,75,0.00,,,0.00,WUHU21623XXSP,2013-01-24 10:22:00,
2013-01-24 04:27:00,-0.2,-6.4,30.44,NW,315,3.6,4.5,75,0.00,,,0.00,WUHU21623XXSP,2013-01-24 10:27:00,
2013-01-24 04:32:00,-0.2,-6.4,30.44,NW,315,2.0,4.5,75,0.00,,,0.00,WUHU21623XXSP,2013-01-24 10:32:00,
2013-01-24 04:37:00,-0.2,-6.4,30.44,WNW,292,3.4,4.5,75,0.00,,,0.00,WUHU21623XXSP,2013-01-24 10:37:00,
2013-01-24 04:42:00,-0.2,-6.4,30.44,NNW,337,1.1,4.7,75,0.00,,,0.00,WUHU21623XXSP,2013-01-24 10:42:00,
2013-01-24 04:47:00,-0.6,-6.7,30.45,NW,315,2.9,4.7,75,0.00,,,0.00,WUHU21623XXSP,2013-01-24 10:47:00,
2013-01-24 04:52:00,-0.4,-6.5,30.45,NW,315,1.8,4.5,75,0.00,,,0.00,WUHU21623XXSP,2013-01-24 10:52:00,
2013-01-24 04:57:00,-0.6,-6.7,30.45,North,0,1.6,3.4,75,0.00,,,0.00,WUHU21623XXSP,2013-01-24 10:57:00,
2013-01-24 05:02:00,-0.4,-6.5,30.46,NW,315,0.0,6.0,75,0.00,,,0.00,WUHU21623XXSP,2013-01-24 11:02:00,
2013-01-24 05:07:00,-0.2,-6.1,30.46,North,0,0.0,6.0,76,0.00,,,0.00,WUHU21623XXSP,2013-01-24 11:07:00,
2013-01-24 05:12:00,-0.2,-6.4,30.47,NW,315,2.5,5.1,75,0.00,,,0.00,WUHU21623XXSP,2013-01-24 11:12:00,
2013-01-24 05:17:00,-0.2,-6.4,30.47,North,0,3.1,6.3,75,0.00,,,0.00,WUHU21623XXSP,2013-01-24 11:17:00,
2013-01-24 05:22:00,-0.2,-6.4,30.48,NNW,337,2.2,6.3,75,0.00,,,0.00,WUHU21623XXSP,2013-01-24 11:22:00,
2013-01-24 05:27:00,-0.2,-6.4,30.48,NW,315,2.9,3.8,75,0.00,,,0.00,WUHU21623XXSP,2013-01-24 11:27:00,
2013-01-24 05:32:00,-0.2,-6.4,30.48,NW,315,1.3,3.1,75,0.00,,,0.00,WUHU21623XXSP,2013-01-24 11:32:00,
2013-01-24 05:37:00,-0.2,-6.1,30.48,NNW,337,0.0,4.7,76,0.00,,,0.00,WUHU21623XXSP,2013-01-24 11:37:00,
2013-01-24 05:42:00,-0.2,-6.1,30.48,NNW,337,5.4,5.4,76,0.00,,,0.00,WUHU21623XXSP,2013-01-24 11:42:00,
2013-01-24 05:47:00,-0.2,-6.1,30.49,NNW,337,3.6,5.4,76,0.00,,,0.00,WUHU21623XXSP,2013-01-24 11:47:00,
2013-01-24 05:52:00,-0.2,-6.1,30.49,NW,315,2.2,4.0,76,0.00,,,0.00,WUHU21623XXSP,2013-01-24 11:52:00,
2013-01-24 05:57:00,-0.2,-6.1,30.49,NNW,337,0.0,4.0,76,0.00,,,0.00,WUHU21623XXSP,2013-01-24 11:57:00,
2013-01-24 06:02:00,-0.2,-6.4,30.49,NW,315,1.1,3.6,75,0.00,,,0.00,WUHU21623XXSP,2013-01-24 12:02:00,
2013-01-24 06:07:00,-0.6,-6.7,30.49,NNW,337,0.0,2.0,75,0.00,,,0.00,WUHU21623XXSP,2013-01-24 12:07:00,
2013-01-24 06:12:00,-0.6,-6.7,30.49,NNW,337,0.0,2.2,75,0.00,,,0.00,WUHU21623XXSP,2013-01-24 12:12:00,
2013-01-24 06:17:00,-0.6,-6.4,30.49,WNW,292,0.0,2.5,76,0.00,,,0.00,WUHU21623XXSP,2013-01-24 12:17:00,
2013-01-24 06:22:00,-0.6,-6.4,30.50,WNW,292,1.3,2.5,76,0.00,,,0.00,WUHU21623XXSP,2013-01-24 12:22:00,
2013-01-24 06:27:00,-0.6,-6.4,30.50,NNW,337,0.0,3.8,76,0.00,,,0.00,WUHU21623XXSP,2013-01-24 12:27:00,
2013-01-24 06:32:00,-0.6,-6.4,30.50,NNW,337,0.0,3.8,76,0.00,,,0.00,WUHU21623XXSP,2013-01-24 12:32:00,
2013-01-24 06:37:00,-0.8,-6.4,30.50,NW,315,0.0,2.5,76,0.00,,,0.00,WUHU21623XXSP,2013-01-24 12:37:00,
2013-01-24 06:42:00,-0.8,-6.6,30.50,NNW,337,1.6,1.6,76,0.00,,,0.00,WUHU21623XXSP,2013-01-24 12:42:00,
2013-01-24 06:47:00,-0.8,-6.6,30.50,North,0,1.3,2.9,76,0.00,,,0.00,WUHU21623XXSP,2013-01-24 12:47:00,
2013-01-24 06:52:00,-0.8,-6.6,30.50,NNE,22,1.3,2.9,76,0.00,,,0.00,WUHU21623XXSP,2013-01-24 12:52:00,
2013-01-24 06:57:00,-0.8,-6.6,30.50,North,0,2.2,2.7,76,0.00,,,0.00,WUHU21623XXSP,2013-01-24 12:57:00,
2013-01-24 07:02:00,-1.1,-6.9,30.50,North,0,1.8,2.7,76,0.00,,,0.00,WUHU21623XXSP,2013-01-24 13:02:00,
2013-01-24 07:07:00,-1.1,-6.9,30.51,North,0,1.3,2.5,76,0.00,,,0.00,WUHU21623XXSP,2013-01-24 13:07:00,
2013-01-24 07:12:00,-1.1,-6.9,30.50,NNW,337,2.0,2.2,76,0.00,,,0.00,WUHU21623XXSP,2013-01-24 13:12:00,
2013-01-24 07:17:00,-0.8,-6.6,30.50,NNW,337,0.0,4.5,76,0.00,,,0.00,WUHU21623XXSP,2013-01-24 13:17:00,
2013-01-24 07:22:00,-0.8,-6.6,30.50,NW,315,2.2,4.5,76,0.00,,,0.00,WUHU21623XXSP,2013-01-24 13:22:00,
2013-01-24 07:27:00,-0.8,-6.6,30.50,North,0,1.6,3.8,76,0.00,,,0.00,WUHU21623XXSP,2013-01-24 13:27:00,
2013-01-24 07:32:00,-0.8,-6.6,30.51,NNW,337,2.0,2.9,76,0.00,,,0.00,WUHU21623XXSP,2013-01-24 13:32:00,
2013-01-24 07:37:00,-0.6,-6.4,30.51,NNE,22,2.5,3.8,76,0.00,,,0.00,WUHU21623XXSP,2013-01-24 13:37:00,
2013-01-24 07:42:00,-0.6,-6.4,30.51,NNW,337,1.6,3.8,76,0.00,,,0.00,WUHU21623XXSP,2013-01-24 13:42:00,
2013-01-24 07:47:00,-0.6,-6.4,30.52,NNW,337,0.0,4.9,76,0.00,,,0.00,WUHU21623XXSP,2013-01-24 13:47:00,
2013-01-24 07:52:00,-0.2,-6.1,30.52,NW,315,2.0,4.9,76,0.00,,,0.00,WUHU21623XXSP,2013-01-24 13:52:00,
2013-01-24 07:57:00,-0.2,-6.1,30.53,NNE,22,1.6,4.7,76,0.00,,,0.00,WUHU21623XXSP,2013-01-24 13:57:00,
2013-01-24 08:02:00,0.1,-5.7,30.53,North,0,0.0,4.7,76,0.00,,,0.00,WUHU21623XXSP,2013-01-24 14:02:00,
2013-01-24 08:07:00,0.3,-5.6,30.53,North,0,3.6,4.7,76,0.00,,,0.00,WUHU21623XXSP,2013-01-24 14:07:00,
2013-01-24 08:12:00,0.5,-5.4,30.53,NW,315,0.7,4.5,76,0.00,,,0.00,WUHU21623XXSP,2013-01-24 14:12:00,
2013-01-24 08:17:00,0.7,-5.5,30.52,North,0,1.8,4.5,75,0.00,,,0.00,WUHU21623XXSP,2013-01-24 14:17:00,
2013-01-24 08:22:00,0.9,-5.3,30.53,North,0,3.6,4.7,75,0.00,,,0.00,WUHU21623XXSP,2013-01-24 14:22:00,
2013-01-24 08:27:00,1.2,-5.0,30.53,NNW,337,1.3,4.7,75,0.00,,,0.00,WUHU21623XXSP,2013-01-24 14:27:00,
2013-01-24 08:32:00,1.4,-4.8,30.53,NNW,337,1.3,4.5,75,0.00,,,0.00,WUHU21623XXSP,2013-01-24 14:32:00,
2013-01-24 08:37:00,1.8,-4.3,30.54,NNW,337,2.0,4.5,75,0.00,,,0.00,WUHU21623XXSP,2013-01-24 14:37:00,
2013-01-24 08:42:00,1.9,-4.5,30.54,NNE,22,2.9,4.5,74,0.00,,,0.00,WUHU21623XXSP,2013-01-24 14:42:00,
2013-01-24 08:47:00,2.3,-4.2,30.55,NNE,22,2.0,4.5,74,0.00,,,0.00,WUHU21623XXSP,2013-01-24 14:47:00,
2013-01-24 08:52:00,2.7,-4.1,30.55,North,0,2.2,5.8,73,0.00,,,0.00,WUHU21623XXSP,2013-01-24 14:52:00,
2013-01-24 08:57:00,2.8,-3.9,30.54,North,0,3.1,5.8,73,0.00,,,0.00,WUHU21623XXSP,2013-01-24 14:57:00,
2013-01-24 09:02:00,3.0,-4.0,30.54,North,0,2.5,4.7,72,0.00,,,0.00,WUHU21623XXSP,2013-01-24 15:02:00,
2013-01-24 09:07:00,3.4,-3.9,30.53,North,0,3.4,6.3,71,0.00,,,0.00,WUHU21623XXSP,2013-01-24 15:07:00,
2013-01-24 09:12:00,3.6,-3.8,30.54,North,0,4.7,6.7,71,0.00,,,0.00,WUHU21623XXSP,2013-01-24 15:12:00,
2013-01-24 09:17:00,3.6,-4.0,30.54,NNE,22,3.1,6.9,70,0.00,,,0.00,WUHU21623XXSP,2013-01-24 15:17:00,
2013-01-24 09:22:00,3.9,-3.7,30.53,North,0,3.6,6.9,70,0.00,,,0.00,WUHU21623XXSP,2013-01-24 15:22:00,
2013-01-24 09:27:00,4.5,-3.2,30.54,ENE,67,3.1,8.3,70,0.00,,,0.00,WUHU21623XXSP,2013-01-24 15:27:00,
2013-01-24 09:32:00,4.8,-3.6,30.53,NNE,22,3.8,8.3,68,0.00,,,0.00,WUHU21623XXSP,2013-01-24 15:32:00,
2013-01-24 09:37:00,5.2,-2.9,30.53,ENE,67,3.8,8.1,69,0.00,,,0.00,WUHU21623XXSP,2013-01-24 15:37:00,
2013-01-24 09:42:00,5.5,-2.8,30.53,ENE,67,2.5,6.9,68,0.00,,,0.00,WUHU21623XXSP,2013-01-24 15:42:00,
2013-01-24 09:47:00,6.1,-3.0,30.53,NNE,22,2.2,9.4,66,0.00,,,0.00,WUHU21623XXSP,2013-01-24 15:47:00,
2013-01-24 09:52:00,6.1,-3.0,30.53,NNW,337,2.5,9.4,66,0.00,,,0.00,WUHU21623XXSP,2013-01-24 15:52:00,
2013-01-24 09:57:00,6.6,-2.7,30.53,NNE,22,4.5,10.3,65,0.00,,,0.00,WUHU21623XXSP,2013-01-24 15:57:00,
2013-01-24 10:02:00,7.5,-1.9,30.53,ENE,67,3.8,10.3,65,0.00,,,0.00,WUHU21623XXSP,2013-01-24 16:02:00,
2013-01-24 10:07:00,7.7,-2.4,30.53,NNE,22,3.8,8.9,63,0.00,,,0.00,WUHU21623XXSP,2013-01-24 16:07:00,
2013-01-24 10:12:00,8.2,-1.5,30.53,NE,45,4.5,8.9,64,0.00,,,0.00,WUHU21623XXSP,2013-01-24 16:12:00,
2013-01-24 10:17:00,8.4,-1.7,30.52,North,0,3.4,6.0,63,0.00,,,0.00,WUHU21623XXSP,2013-01-24 16:17:00,
2013-01-24 10:22:00,8.8,-1.4,30.52,North,0,4.7,8.3,63,0.00,,,0.00,WUHU21623XXSP,2013-01-24 16:22:00,
2013-01-24 10:27:00,9.1,-1.0,30.52,North,0,2.5,8.3,63,0.00,,,0.00,WUHU21623XXSP,2013-01-24 16:27:00,
2013-01-24 10:32:00,9.7,-0.5,30.52,NNE,22,2.7,5.6,63,0.00,,,0.00,WUHU21623XXSP,2013-01-24 16:32:00,
2013-01-24 10:37:00,9.7,-0.8,30.52,NNE,22,2.5,5.8,62,0.00,,,0.00,WUHU21623XXSP,2013-01-24 16:37:00,
2013-01-24 10:42:00,9.3,-1.2,30.52,North,0,0.7,6.9,62,0.00,,,0.00,WUHU21623XXSP,2013-01-24 16:42:00,
2013-01-24 10:47:00,9.5,-0.7,30.51,NE,45,1.6,6.9,63,0.00,,,0.00,WUHU21623XXSP,2013-01-24 16:47:00,
2013-01-24 10:52:00,9.7,-0.5,30.52,NNE,22,1.6,5.4,63,0.00,,,0.00,WUHU21623XXSP,2013-01-24 16:52:00,
2013-01-24 10:57:00,10.2,0.4,30.52,NNE,22,4.7,5.1,64,0.00,,,0.00,WUHU21623XXSP,2013-01-24 16:57:00,
2013-01-24 11:02:00,9.7,-0.5,30.52,NNW,337,0.0,4.7,63,0.00,,,0.00,WUHU21623XXSP,2013-01-24 17:02:00,
2013-01-24 11:07:00,10.2,0.0,30.51,NNW,337,0.9,3.8,63,0.00,,,0.00,WUHU21623XXSP,2013-01-24 17:07:00,
2013-01-24 11:12:00,10.2,0.0,30.51,North,0,2.9,4.7,63,0.00,,,0.00,WUHU21623XXSP,2013-01-24 17:12:00,
2013-01-24 11:17:00,10.2,0.0,30.51,NNE,22,2.7,4.7,63,0.00,,,0.00,WUHU21623XXSP,2013-01-24 17:17:00,
2013-01-24 11:22:00,10.2,0.0,30.51,North,0,1.6,2.9,63,0.00,,,0.00,WUHU21623XXSP,2013-01-24 17:22:00,
2013-01-24 11:27:00,10.8,0.5,30.51,NW,315,1.1,3.4,63,0.00,,,0.00,WUHU21623XXSP,2013-01-24 17:27:00,
2013-01-24 11:32:00,11.1,0.9,30.50,ENE,67,1.8,3.4,63,0.00,,,0.00,WUHU21623XXSP,2013-01-24 17:32:00,
2013-01-24 11:37:00,12.0,1.7,30.50,SE,135,0.0,2.5,63,0.00,,,0.00,WUHU21623XXSP,2013-01-24 17:37:00,
2013-01-24 11:42:00,12.4,1.7,30.50,North,0,2.2,3.4,62,0.00,,,0.00,WUHU21623XXSP,2013-01-24 17:42:00,
2013-01-24 11:47:00,12.0,0.7,30.50,North,0,1.6,4.7,60,0.00,,,0.00,WUHU21623XXSP,2013-01-24 17:47:00,
2013-01-24 11:52:00,12.0,1.0,30.50,NW,315,1.3,4.7,61,0.00,,,0.00,WUHU21623XXSP,2013-01-24 17:52:00,
2013-01-24 11:57:00,11.5,0.5,30.49,NW,315,4.7,4.9,61,0.00,,,0.00,WUHU21623XXSP,2013-01-24 17:57:00,
2013-01-24 12:02:00,11.7,1.0,30.50,East,90,2.9,4.9,62,0.00,,,0.00,WUHU21623XXSP,2013-01-24 18:02:00,
2013-01-24 12:07:00,12.4,1.4,30.50,NNW,337,0.0,4.9,61,0.00,,,0.00,WUHU21623XXSP,2013-01-24 18:07:00,
2013-01-24 12:12:00,13.1,2.1,30.49,ENE,67,1.3,3.8,61,0.00,,,0.00,WUHU21623XXSP,2013-01-24 18:12:00,
2013-01-24 12:17:00,13.3,2.3,30.49,NE,45,2.2,4.7,61,0.00,,,0.00,WUHU21623XXSP,2013-01-24 18:17:00,
2013-01-24 12:22:00,13.3,1.9,30.49,East,90,0.0,4.7,60,0.00,,,0.00,WUHU21623XXSP,2013-01-24 18:22:00,
2013-01-24 12:27:00,13.8,2.5,30.49,ENE,67,0.9,4.7,60,0.00,,,0.00,WUHU21623XXSP,2013-01-24 18:27:00,
2013-01-24 12:32:00,13.3,1.5,30.49,NE,45,2.5,3.1,59,0.00,,,0.00,WUHU21623XXSP,2013-01-24 18:32:00,
2013-01-24 12:37:00,13.8,2.1,30.48,NNE,22,3.6,3.6,59,0.00,,,0.00,WUHU21623XXSP,2013-01-24 18:37:00,
2013-01-24 12:42:00,13.6,1.9,30.48,NW,315,0.0,3.6,59,0.00,,,0.00,WUHU21623XXSP,2013-01-24 18:42:00,
2013-01-24 12:47:00,14.2,2.8,30.48,NNE,22,4.3,4.3,60,0.00,,,0.00,WUHU21623XXSP,2013-01-24 18:47:00,
2013-01-24 12:52:00,14.5,2.8,30.47,NE,45,0.0,4.3,59,0.00,,,0.00,WUHU21623XXSP,2013-01-24 18:52:00,
2013-01-24 12:57:00,14.2,2.4,30.47,ENE,67,2.0,4.3,59,0.00,,,0.00,WUHU21623XXSP,2013-01-24 18:57:00,
2013-01-24 13:02:00,13.6,1.5,30.47,North,0,1.6,4.3,58,0.00,,,0.00,WUHU21623XXSP,2013-01-24 19:02:00,
2013-01-24 13:07:00,13.8,2.1,30.47,East,90,1.6,4.0,59,0.00,,,0.00,WUHU21623XXSP,2013-01-24 19:07:00,
2013-01-24 13:12:00,14.0,2.7,30.46,NW,315,0.0,2.9,60,0.00,,,0.00,WUHU21623XXSP,2013-01-24 19:12:00,
2013-01-24 13:17:00,14.7,2.9,30.46,SSE,157,0.0,1.6,59,0.00,,,0.00,WUHU21623XXSP,2013-01-24 19:17:00,
2013-01-24 13:22:00,15.6,3.7,30.46,NE,45,0.0,2.7,59,0.00,,,0.00,WUHU21623XXSP,2013-01-24 19:22:00,
2013-01-24 13:27:00,15.6,3.3,30.47,ESE,112,0.0,2.7,58,0.00,,,0.00,WUHU21623XXSP,2013-01-24 19:27:00,
2013-01-24 13:32:00,15.6,3.3,30.47,NNE,22,0.0,2.2,58,0.00,,,0.00,WUHU21623XXSP,2013-01-24 19:32:00,
2013-01-24 13:37:00,15.8,3.5,30.46,NNE,22,2.2,2.2,58,0.00,,,0.00,WUHU21623XXSP,2013-01-24 19:37:00,
2013-01-24 13:42:00,15.1,2.5,30.46,NNW,337,2.7,4.0,57,0.00,,,0.00,WUHU21623XXSP,2013-01-24 19:42:00,
2013-01-24 13:47:00,14.5,2.4,30.46,North,0,0.0,4.0,58,0.00,,,0.00,WUHU21623XXSP,2013-01-24 19:47:00,
2013-01-24 13:52:00,14.5,2.8,30.46,ENE,67,0.0,2.2,59,0.00,,,0.00,WUHU21623XXSP,2013-01-24 19:52:00,
2013-01-24 13:57:00,14.7,2.9,30.45,South,180,0.0,1.6,59,0.00,,,0.00,WUHU21623XXSP,2013-01-24 19:57:00,
2013-01-24 14:02:00,15.1,3.2,30.46,SE,135,0.0,1.6,59,0.00,,,0.00,WUHU21623XXSP,2013-01-24 20:02:00,
2013-01-24 14:07:00,14.7,2.9,30.46,NNE,22,1.6,2.0,59,0.00,,,0.00,WUHU21623XXSP,2013-01-24 20:07:00,
2013-01-24 14:12:00,14.7,2.9,30.46,NE,45,1.1,2.0,59,0.00,,,0.00,WUHU21623XXSP,2013-01-24 20:12:00,
2013-01-24 14:17:00,14.4,2.6,30.45,NW,315,0.0,2.2,59,0.00,,,0.00,WUHU21623XXSP,2013-01-24 20:17:00,
2013-01-24 14:22:00,14.2,2.4,30.45,NNE,22,3.4,3.4,59,0.00,,,0.00,WUHU21623XXSP,2013-01-24 20:22:00,
2013-01-24 14:27:00,13.8,2.1,30.45,North,0,2.2,3.4,59,0.00,,,0.00,WUHU21623XXSP,2013-01-24 20:27:00,
2013-01-24 14:32:00,13.8,2.1,30.45,NNE,22,0.0,3.4,59,0.00,,,0.00,WUHU21623XXSP,2013-01-24 20:32:00,
2013-01-24 14:37:00,13.8,2.5,30.45,NE,45,1.8,3.6,60,0.00,,,0.00,WUHU21623XXSP,2013-01-24 20:37:00,
2013-01-24 14:42:00,13.8,2.5,30.45,NE,45,2.0,3.6,60,0.00,,,0.00,WUHU21623XXSP,2013-01-24 20:42:00,
2013-01-24 14:47:00,14.2,2.8,30.45,NNW,337,0.0,2.9,60,0.00,,,0.00,WUHU21623XXSP,2013-01-24 20:47:00,
2013-01-24 14:52:00,14.2,2.8,30.45,ENE,67,1.3,2.0,60,0.00,,,0.00,WUHU21623XXSP,2013-01-24 20:52:00,
2013-01-24 14:57:00,13.6,2.3,30.45,North,0,2.5,2.9,60,0.00,,,0.00,WUHU21623XXSP,2013-01-24 20:57:00,
2013-01-24 15:02:00,13.6,2.6,30.45,ESE,112,0.0,2.9,61,0.00,,,0.00,WUHU21623XXSP,2013-01-24 21:02:00,
2013-01-24 15:07:00,13.6,2.6,30.44,North,0,1.3,2.5,61,0.00,,,0.00,WUHU21623XXSP,2013-01-24 21:07:00,
2013-01-24 15:12:00,13.6,2.6,30.44,North,0,1.3,3.1,61,0.00,,,0.00,WUHU21623XXSP,2013-01-24 21:12:00,
2013-01-24 15:17:00,13.6,2.6,30.45,NE,45,0.0,3.1,61,0.00,,,0.00,WUHU21623XXSP,2013-01-24 21:17:00,
2013-01-24 15:22:00,13.6,2.6,30.44,NE,45,0.0,2.2,61,0.00,,,0.00,WUHU21623XXSP,2013-01-24 21:22:00,
2013-01-24 15:27:00,13.6,2.6,30.44,ENE,67,0.0,2.2,61,0.00,,,0.00,WUHU21623XXSP,2013-01-24 21:27:00,
2013-01-24 15:32:00,13.6,2.6,30.44,NNE,22,0.0,2.5,61,0.00,,,0.00,WUHU21623XXSP,2013-01-24 21:32:00,
2013-01-24 15:37:00,13.6,2.6,30.44,NE,45,0.0,4.7,61,0.00,,,0.00,WUHU21623XXSP,2013-01-24 21:37:00,
2013-01-24 15:42:00,13.3,2.3,30.44,NNE,22,0.0,4.7,61,0.00,,,0.00,WUHU21623XXSP,2013-01-24 21:42:00,
2013-01-24 15:47:00,13.3,2.3,30.44,NE,45,0.0,2.2,61,0.00,,,0.00,WUHU21623XXSP,2013-01-24 21:47:00,
2013-01-24 15:52:00,13.3,2.3,30.44,ENE,67,0.0,2.2,61,0.00,,,0.00,WUHU21623XXSP,2013-01-24 21:52:00,
2013-01-24 15:57:00,13.1,2.3,30.43,ENE,67,1.1,2.0,61,0.00,,,0.00,WUHU21623XXSP,2013-01-24 21:57:00,
2013-01-24 16:02:00,13.1,2.4,30.43,North,0,2.0,2.5,62,0.00,,,0.00,WUHU21623XXSP,2013-01-24 22:02:00,
2013-01-24 16:07:00,12.9,2.3,30.43,NNE,22,1.6,2.5,62,0.00,,,0.00,WUHU21623XXSP,2013-01-24 22:07:00,
2013-01-24 16:12:00,12.9,2.3,30.43,ESE,112,0.0,3.4,62,0.00,,,0.00,WUHU21623XXSP,2013-01-24 22:12:00,
2013-01-24 16:17:00,12.9,2.3,30.43,ENE,67,0.0,3.4,62,0.00,,,0.00,WUHU21623XXSP,2013-01-24 22:17:00,
2013-01-24 16:22:00,12.9,2.6,30.43,ENE,67,1.1,2.7,63,0.00,,,0.00,WUHU21623XXSP,2013-01-24 22:22:00,
2013-01-24 16:27:00,12.7,2.4,30.42,North,0,0.9,2.7,63,0.00,,,0.00,WUHU21623XXSP,2013-01-24 22:27:00,
2013-01-24 16:32:00,12.7,2.4,30.42,ENE,67,0.0,1.8,63,0.00,,,0.00,WUHU21623XXSP,2013-01-24 22:32:00,
2013-01-24 16:37:00,12.6,2.2,30.43,NE,45,0.0,1.8,63,0.00,,,0.00,WUHU21623XXSP,2013-01-24 22:37:00,
2013-01-24 16:42:00,12.6,2.6,30.43,North,0,1.8,1.8,64,0.00,,,0.00,WUHU21623XXSP,2013-01-24 22:42:00,
2013-01-24 16:47:00,12.4,2.4,30.42,NNW,337,1.1,2.9,64,0.00,,,0.00,WUHU21623XXSP,2013-01-24 22:47:00,
2013-01-24 16:52:00,12.4,2.8,30.42,NE,45,1.3,2.9,65,0.00,,,0.00,WUHU21623XXSP,2013-01-24 22:52:00,
2013-01-24 16:57:00,12.4,2.8,30.42,North,0,0.0,2.0,65,0.00,,,0.00,WUHU21623XXSP,2013-01-24 22:57:00,
2013-01-24 17:02:00,12.4,2.8,30.42,NE,45,0.0,1.8,65,0.00,,,0.00,WUHU21623XXSP,2013-01-24 23:02:00,
2013-01-24 17:07:00,12.4,2.8,30.42,North,0,2.2,2.5,65,0.00,,,0.00,WUHU21623XXSP,2013-01-24 23:07:00,
2013-01-24 17:12:00,12.4,2.8,30.42,NE,45,0.0,2.5,65,0.00,,,0.00,WUHU21623XXSP,2013-01-24 23:12:00,
2013-01-24 17:17:00,12.4,2.8,30.42,NNE,22,0.0,2.5,65,0.00,,,0.00,WUHU21623XXSP,2013-01-24 23:17:00,
2013-01-24 17:22:00,12.4,3.1,30.42,NNE,22,1.6,2.2,66,0.00,,,0.00,WUHU21623XXSP,2013-01-24 23:22:00,
2013-01-24 17:27:00,12.4,3.1,30.41,NNE,22,0.0,2.2,66,0.00,,,0.00,WUHU21623XXSP,2013-01-24 23:27:00,
2013-01-24 17:32:00,12.4,3.1,30.41,ENE,67,0.0,1.3,66,0.00,,,0.00,WUHU21623XXSP,2013-01-24 23:32:00,
2013-01-24 17:37:00,12.4,3.1,30.41,ENE,67,0.0,0.0,66,0.00,,,0.00,WUHU21623XXSP,2013-01-24 23:37:00,
2013-01-24 17:42:00,12.4,3.1,30.42,North,0,0.0,0.0,66,0.00,,,0.00,WUHU21623XXSP,2013-01-24 23:42:00,
2013-01-24 17:47:00,12.6,3.6,30.41,NE,45,0.0,2.2,67,0.00,,,0.00,WUHU21623XXSP,2013-01-24 23:47:00,
2013-01-24 17:52:00,12.6,3.6,30.40,East,90,0.0,2.2,67,0.00,,,0.00,WUHU21623XXSP,2013-01-24 23:52:00,
2013-01-24 17:57:00,12.6,3.6,30.40,SSE,157,0.0,0.0,67,0.00,,,0.00,WUHU21623XXSP,2013-01-24 23:57:00,
2013-01-24 18:02:00,12.6,3.6,30.41,SW,225,0.0,0.0,67,0.00,,,0.00,WUHU21623XXSP,2013-01-25 00:02:00,
2013-01-24 18:07:00,12.6,3.6,30.40,ENE,67,0.0,0.0,67,0.00,,,0.00,WUHU21623XXSP,2013-01-25 00:07:00,
2013-01-24 18:12:00,12.7,3.8,30.40,ENE,67,0.0,0.0,67,0.00,,,0.00,WUHU21623XXSP,2013-01-25 00:12:00,
2013-01-24 18:17:00,12.7,3.8,30.40,ENE,67,0.0,0.0,67,0.00,,,0.00,WUHU21623XXSP,2013-01-25 00:17:00,
2013-01-24 18:22:00,12.7,3.8,30.39,ENE,67,0.0,0.0,67,0.00,,,0.00,WUHU21623XXSP,2013-01-25 00:22:00,
2013-01-24 18:27:00,12.7,3.8,30.39,East,90,0.0,0.0,67,0.00,,,0.00,WUHU21623XXSP,2013-01-25 00:27:00,
2013-01-24 18:32:00,12.9,4.0,30.38,East,90,0.0,0.0,67,0.00,,,0.00,WUHU21623XXSP,2013-01-25 00:32:00,
2013-01-24 18:37:00,12.7,3.8,30.38,ESE,112,0.0,0.0,67,0.00,,,0.00,WUHU21623XXSP,2013-01-25 00:37:00,
2013-01-24 18:42:00,12.9,4.0,30.38,SSE,157,0.0,0.0,67,0.00,,,0.00,WUHU21623XXSP,2013-01-25 00:42:00,
2013-01-24 18:47:00,12.9,4.0,30.38,South,180,1.6,2.2,67,0.00,,,0.00,WUHU21623XXSP,2013-01-25 00:47:00,
2013-01-24 18:52:00,12.9,3.8,30.37,East,90,0.0,2.2,67,0.00,,,0.00,WUHU21623XXSP,2013-01-25 00:52:00,
2013-01-24 18:57:00,12.9,4.0,30.37,ESE,112,0.9,2.2,67,0.00,,,0.00,WUHU21623XXSP,2013-01-25 00:57:00,
2013-01-24 19:02:00,12.9,4.3,30.37,ESE,112,0.0,2.2,68,0.00,,,0.00,WUHU21623XXSP,2013-01-25 01:02:00,
2013-01-24 19:07:00,12.9,4.3,30.36,ESE,112,0.0,2.5,68,0.00,,,0.00,WUHU21623XXSP,2013-01-25 01:07:00,
2013-01-24 19:12:00,13.1,4.5,30.36,ESE,112,0.0,2.5,68,0.00,,,0.00,WUHU21623XXSP,2013-01-25 01:12:00,
2013-01-24 19:17:00,13.1,4.5,30.36,NE,45,0.0,2.2,68,0.00,,,0.00,WUHU21623XXSP,2013-01-25 01:17:00,
2013-01-24 19:22:00,13.3,4.7,30.35,North,0,0.0,2.2,68,0.00,,,0.00,WUHU21623XXSP,2013-01-25 01:22:00,
2013-01-24 19:27:00,13.3,4.7,30.35,SSE,157,1.1,4.5,68,0.00,,,0.00,WUHU21623XXSP,2013-01-25 01:27:00,
2013-01-24 19:32:00,13.3,4.7,30.35,SSE,157,0.0,4.5,68,0.00,,,0.00,WUHU21623XXSP,2013-01-25 01:32:00,
2013-01-24 19:37:00,13.3,4.7,30.35,East,90,1.6,2.5,68,0.00,,,0.00,WUHU21623XXSP,2013-01-25 01:37:00,
2013-01-24 19:42:00,13.3,4.7,30.34,South,180,2.0,2.5,68,0.00,,,0.00,WUHU21623XXSP,2013-01-25 01:42:00,
2013-01-24 19:47:00,13.6,5.0,30.34,ENE,67,0.0,2.0,68,0.00,,,0.00,WUHU21623XXSP,2013-01-25 01:47:00,
2013-01-24 19:52:00,13.6,5.0,30.34,East,90,0.0,2.0,68,0.00,,,0.00,WUHU21623XXSP,2013-01-25 01:52:00,
2013-01-24 19:57:00,13.6,5.0,30.34,NE,45,0.0,2.5,68,0.00,,,0.00,WUHU21623XXSP,2013-01-25 01:57:00,
2013-01-24 20:02:00,13.6,5.0,30.34,SSW,202,0.0,2.5,68,0.00,,,0.00,WUHU21623XXSP,2013-01-25 02:02:00,
2013-01-24 20:07:00,13.6,5.0,30.34,ESE,112,0.0,2.5,68,0.00,,,0.00,WUHU21623XXSP,2013-01-25 02:07:00,
2013-01-24 20:12:00,13.6,4.7,30.34,NE,45,0.0,2.5,67,0.00,,,0.00,WUHU21623XXSP,2013-01-25 02:12:00,
2013-01-24 20:17:00,13.8,5.2,30.33,SE,135,0.0,1.6,68,0.00,,,0.00,WUHU21623XXSP,2013-01-25 02:17:00,
2013-01-24 20:22:00,13.8,5.2,30.34,NNE,22,0.0,1.6,68,0.00,,,0.00,WUHU21623XXSP,2013-01-25 02:22:00,
2013-01-24 20:27:00,13.8,5.2,30.34,NE,45,0.0,2.0,68,0.00,,,0.00,WUHU21623XXSP,2013-01-25 02:27:00,
2013-01-24 20:32:00,13.8,5.2,30.34,NE,45,0.0,2.0,68,0.00,,,0.00,WUHU21623XXSP,2013-01-25 02:32:00,
2013-01-24 20:37:00,14.2,5.6,30.34,ESE,112,0.0,2.0,68,0.00,,,0.00,WUHU21623XXSP,2013-01-25 02:37:00,
2013-01-24 20:42:00,14.2,5.6,30.35,South,180,0.0,1.8,68,0.00,,,0.00,WUHU21623XXSP,2013-01-25 02:42:00,
2013-01-24 20:47:00,14.2,5.6,30.34,SSW,202,2.2,2.2,68,0.00,,,0.00,WUHU21623XXSP,2013-01-25 02:47:00,
2013-01-24 20:52:00,14.2,5.6,30.34,ESE,112,0.0,2.2,68,0.00,,,0.00,WUHU21623XXSP,2013-01-25 02:52:00,
2013-01-24 20:57:00,14.2,5.6,30.33,SSE,157,0.0,1.3,68,0.00,,,0.00,WUHU21623XXSP,2013-01-25 02:57:00,
2013-01-24 21:02:00,14.2,5.6,30.33,SSE,157,0.0,1.6,68,0.00,,,0.00,WUHU21623XXSP,2013-01-25 03:02:00,
2013-01-24 21:07:00,14.2,5.6,30.32,SSE,157,0.0,1.6,68,0.00,,,0.00,WUHU21623XXSP,2013-01-25 03:07:00,
2013-01-24 21:12:00,14.2,5.6,30.32,South,180,1.3,2.7,68,0.00,,,0.00,WUHU21623XXSP,2013-01-25 03:12:00,
2013-01-24 21:17:00,14.2,5.6,30.33,NE,45,0.0,2.7,68,0.00,,,0.00,WUHU21623XXSP,2013-01-25 03:17:00,
2013-01-24 21:22:00,14.4,5.7,30.32,SE,135,0.0,0.0,68,0.00,,,0.00,WUHU21623XXSP,2013-01-25 03:22:00,
2013-01-24 21:27:00,14.4,5.7,30.31,ESE,112,0.0,0.0,68,0.00,,,0.00,WUHU21623XXSP,2013-01-25 03:27:00,
2013-01-24 21:32:00,14.4,5.7,30.31,SE,135,0.0,0.0,68,0.00,,,0.00,WUHU21623XXSP,2013-01-25 03:32:00,
2013-01-24 21:37:00,14.4,6.1,30.30,East,90,1.1,2.5,69,0.00,,,0.00,WUHU21623XXSP,2013-01-25 03:37:00,
2013-01-24 21:42:00,14.4,6.1,30.30,South,180,0.0,2.5,69,0.00,,,0.00,WUHU21623XXSP,2013-01-25 03:42:00,
2013-01-24 21:47:00,14.4,6.4,30.30,SE,135,0.0,0.0,70,0.00,,,0.00,WUHU21623XXSP,2013-01-25 03:47:00,
2013-01-24 21:52:00,14.4,6.4,30.29,ENE,67,1.3,2.0,70,0.00,,,0.00,WUHU21623XXSP,2013-01-25 03:52:00,
2013-01-24 21:57:00,14.5,6.7,30.29,ENE,67,0.0,2.7,71,0.00,,,0.00,WUHU21623XXSP,2013-01-25 03:57:00,
2013-01-24 22:02:00,14.5,7.1,30.29,SSE,157,0.0,2.7,72,0.00,,,0.00,WUHU21623XXSP,2013-01-25 04:02:00,
2013-01-24 22:07:00,14.7,7.3,30.30,ESE,112,1.6,3.4,72,0.00,,,0.00,WUHU21623XXSP,2013-01-25 04:07:00,
2013-01-24 22:12:00,14.7,7.6,30.29,ENE,67,1.6,3.4,73,0.00,,,0.00,WUHU21623XXSP,2013-01-25 04:12:00,
2013-01-24 22:17:00,14.7,7.6,30.30,ENE,67,0.0,2.7,73,0.00,,,0.00,WUHU21623XXSP,2013-01-25 04:17:00,
2013-01-24 22:22:00,14.9,8.1,30.29,SE,135,2.7,2.9,74,0.00,,,0.00,WUHU21623XXSP,2013-01-25 04:22:00,
2013-01-24 22:27:00,15.3,8.4,30.30,NW,315,0.0,2.9,74,0.00,,,0.00,WUHU21623XXSP,2013-01-25 04:27:00,
2013-01-24 22:32:00,15.4,8.9,30.30,ENE,67,1.6,2.9,75,0.00,,,0.00,WUHU21623XXSP,2013-01-25 04:32:00,
2013-01-24 22:37:00,15.6,9.1,30.30,SSE,157,0.0,3.1,75,0.00,,,0.00,WUHU21623XXSP,2013-01-25 04:37:00,
2013-01-24 22:42:00,15.6,9.1,30.29,SSE,157,1.8,3.1,75,0.00,,,0.00,WUHU21623XXSP,2013-01-25 04:42:00,
2013-01-24 22:47:00,16.0,9.4,30.29,ESE,112,0.0,2.2,75,0.00,,,0.00,WUHU21623XXSP,2013-01-25 04:47:00,
2013-01-24 22:52:00,16.0,9.4,30.28,ENE,67,0.0,3.8,75,0.00,,,0.00,WUHU21623XXSP,2013-01-25 04:52:00,
2013-01-24 22:57:00,16.2,9.6,30.28,East,90,0.0,3.8,75,0.00,,,0.00,WUHU21623XXSP,2013-01-25 04:57:00,
2013-01-24 23:01:00,16.2,9.6,30.28,WSW,247,0.0,3.8,75,0.00,,,0.00,WUHU21623XXSP,2013-01-25 05:01:00,
2013-01-24 23:03:00,16.3,9.7,30.29,ESE,112,0.0,2.2,75,0.00,,,0.00,WUHU21623XXSP,2013-01-25 05:03:00,
2013-01-24 23:08:00,16.5,9.9,30.28,SSW,202,0.0,2.9,75,0.00,,,0.00,WUHU21623XXSP,2013-01-25 05:08:00,
2013-01-24 23:13:00,16.7,9.8,30.28,NE,45,0.0,2.9,74,0.00,,,0.00,WUHU21623XXSP,2013-01-25 05:13:00,
2013-01-24 23:18:00,16.7,9.8,30.28,ENE,67,0.0,2.0,74,0.00,,,0.00,WUHU21623XXSP,2013-01-25 05:18:00,
2013-01-24 23:23:00,16.9,9.9,30.28,SE,135,1.1,5.1,74,0.00,,,0.00,WUHU21623XXSP,2013-01-25 05:23:00,
2013-01-24 23:28:00,17.2,10.0,30.28,SSE,157,2.9,6.3,73,0.00,,,0.00,WUHU21623XXSP,2013-01-25 05:28:00,
2013-01-24 23:33:00,17.4,9.6,30.27,SE,135,1.8,6.3,71,0.00,,,0.00,WUHU21623XXSP,2013-01-25 05:33:00,
2013-01-24 23:38:00,17.8,9.7,30.27,South,180,5.1,8.9,70,0.00,,,0.00,WUHU21623XXSP,2013-01-25 05:38:00,
2013-01-24 23:43:00,17.8,9.3,30.26,SSE,157,2.5,8.9,69,0.00,,,0.00,WUHU21623XXSP,2013-01-25 05:43:00,
2013-01-24 23:48:00,17.8,9.0,30.25,South,180,6.7,7.6,68,0.00,,,0.00,WUHU21623XXSP,2013-01-25 05:48:00,
2013-01-24 23:53:00,17.8,9.0,30.25,SSW,202,0.0,7.6,68,0.00,,,0.00,WUHU21623XXSP,2013-01-25 05:53:00,
2013-01-24 23:58:00,17.8,8.6,30.25,SSE,157,5.6,6.3,67,0.00,,,0.00,WUHU21623XXSP,2013-01-25 05:58:00,